Regional Weather Roundup
Issued by NWS

Home | Current Version | Previous Version | Graphics & Text | Print | Product List | Glossary On
Versions: 1 2 3 4 5 6 7 8 9 10 11 12 13 14 15 16 17 18 19 20 21 22 23 24 25 26 27 28 29 30 31 32 33 34 35 36 37 38 39 40 41 42 43 44 45 46 47 48 49 50
000
ASUS43 KDMX 280308
RWRIA

WEATHER ROUNDUP FOR IOWA
NATIONAL WEATHER SERVICE DES MOINES IA
1000 PM CDT SAT AUG 27 2016

NOTE: "FAIR" INDICATES FEW OR NO CLOUDS BELOW 12,000 FEET WITH NO
SIGNIFICANT WEATHER AND/OR OBSTRUCTIONS TO VISIBILITY.

* - THESE STATIONS ARE NOT NWS STATIONS...THUS NOT UNDER NWS
QUALITY CONTROL.  THEY ALSO DO NOT REPORT WEATHER SUCH
AS PRECIPITATION OR FOG.

IAZ001>003-012>014-020>022-031>034-043>046-280400-
   NORTHWEST IOWA

CITY           SKY/WX    TMP DP  RH WIND       PRES   REMARKS
CARROLL *      DRIZZLE   68  66  94 SE5       30.06R
CHEROKEE *     CLEAR     64  64  98 CALM      30.04R
DENISON *      CLEAR     66  66 100 E6        30.04R
LE MARS *      CLEAR     68  64  88 CALM      30.04R
ORANGE CITY *  CLEAR     66  64  94 E3        30.04S
SHELDON *      CLEAR     63  63 100 SE5       30.03R FOG
SIOUX CITY     CLEAR     68  64  87 SE6       30.02R
SPENCER        CLEAR     60  59  96 CALM      30.05R FOG
STORM LAKE *   CLEAR     64  63  94 SE6       30.06R
$$

IAZ055>058-069>071-079>083-090>094-280400-
   SOUTHWEST IOWA

CITY           SKY/WX    TMP DP  RH WIND       PRES   REMARKS
ATLANTIC *     PTCLDY    66  66 100 CALM      30.06R
AUDUBON *      CLEAR     64  61  88 CALM      30.08R
CLARINDA *       N/A     68  68 100 MISG      30.07R
COUNCIL BLFS * CLEAR     72  68  88 E3        30.05R
CRESTON *      CLEAR     68  66  94 SE3       30.08R
HARLAN  *      CLEAR     66  66 100 CALM      30.09R
LAMONI         CLEAR     75  69  81 CALM      30.06R
RED OAK *      CLEAR     68  66  94 CALM      30.05R
SHENANDOAH *   CLEAR     70 -38   1 CALM      30.05R
$$

IAZ047>049-059>061-072>074-084-280400-
   CENTRAL IOWA

CITY           SKY/WX    TMP DP  RH WIND       PRES   REMARKS
AMES           PTCLDY    66  66 100 CALM      30.06R
ANKENY *         N/A    N/A N/A N/A MISG        N/A
BOONE *        PTCLDY    68  66  94 E3        30.06R
CHARITON *       N/A     70  68  94 MISG      30.06R
DES MOINES     MOCLDY    74  70  87 SE6       30.05R
GRINNELL*      PTCLDY    69  66  92 E5        30.08R
KNOXVILLE *    PTCLDY    72  68  88 CALM      30.05R
MARSHALLTOWN   CLEAR     66  65  96 E5        30.06R
NEWTON *       CLEAR     72  70  94 E5        30.06R
PELLA *        PTCLDY    71  69  94 CALM      30.07R
PERRY *        MOCLDY    69  69  99 CALM      30.06R
$$

IAZ004>006-015-016-023>025-035-036-280400-
   NORTH CENTRAL IOWA

CITY           SKY/WX    TMP DP  RH WIND       PRES   REMARKS
ALGONA *       CLOUDY    66  64  94 SE3       30.06R
ESTHERVILLE    CLEAR     60  60 100 SE5       30.05R
FORT DODGE *   CLEAR     68  64  88 CALM      30.07R
MASON CITY     PTCLDY    66  65  96 CALM      30.08R
FOREST CITY *    N/A    N/A N/A N/A MISG        N/A
WEBSTER CITY * CLEAR     64  64 100 SE6       30.05R
IOWA FALLS *     N/A     65  63  93 CALM      30.08R
$$

IAZ007>011-017>019-026>030-037>042-050>054-066-280400-
   NORTHEAST IOWA

CITY           SKY/WX    TMP DP  RH WIND       PRES   REMARKS
CEDAR RAPIDS   CLEAR     71  69  93 CALM      30.06R
CHARLES CITY * CLEAR     66  66 100 SE6       30.08R
CLINTON *      PTCLDY    71  70  96 NE5       30.07
DECORAH *      PTCLDY    66  66 100 CALM      30.08R FOG
DUBUQUE        CLEAR     68  66  93 CALM      30.09R
MONTICELLO *   CLEAR     68  66  94 CALM      30.07R
OELWEIN *      CLEAR     64  63  94 SE6       30.08S FOG
WATERLOO       CLEAR     65  63  93 CALM      30.06R
$$

IAZ064-065-067-068-078-280400-
   EAST CENTRAL IOWA

CITY           SKY/WX    TMP DP  RH WIND       PRES   REMARKS
DAVENPORT      MOCLDY    72  69  90 NE6       30.06R
IOWA CITY      PTCLDY    73  70  90 CALM      30.08R
MT. PLEASANT * CLEAR     77  72  84 CALM      30.07R
MUSCATINE *    CLOUDY    75  72  88 NW5       30.06R
QUAD CITIES    CLOUDY    75  72  90 SE3       30.05R THUNDER
$$

IAZ062-063-075>077-085>089-095>099-280400-
   SOUTHEAST IOWA

CITY           SKY/WX    TMP DP  RH WIND       PRES   REMARKS
BURLINGTON     CLEAR     75  74  96 CALM      30.06R
FAIRFIELD *    PTCLDY    70  68  94 CALM      30.06S
FORT MADISON * PTCLDY    73  72  94 CALM      30.07R
KEOKUK *       CLEAR     75  73  94 CALM      30.05S
OSKALOOSA *      N/A     71  69  91 E5        30.07R
CENTERVILLE *    N/A     70  68  94 CALM      30.08R
OTTUMWA        CLEAR     69  67  93 CALM      30.06R
WASHINGTON *   PTCLDY    72  70  94 CALM      30.08R
$$

ABBREVIATIONS USED IN REMARKS
   TC - TEMPERATURES IN CELSIUS
  WCI - WIND CHILL INDEX
   HX - HEAT INDEX
  VSB - VISIBILITY
$$





USA.gov is the U.S. government's official web portal to all federal, state and local government web resources and services.